Station OPTF1 - 8726607 - Old Port Tampa, FL Image indicating link to RSS feed of recent meteorological observations for station OPTF1


Conditions at OPTF1 as of
(6:18 pm EDT)
2218 GMT on 06/21/2024:
     

Click on the graph icon in the table below to see a time series plot of the last five days of that observation.

5-day plot - Wind Direction Wind Direction (WDIR): NW ( 320 deg true )
5-day plot - Wind Speed Wind Speed (WSPD): 9.9 kts
5-day plot - Wind Gust Wind Gust (GST): 11.1 kts
5-day plot - Atmospheric Pressure Atmospheric Pressure (PRES):30.01 in
5-day plot - Air Temperature Air Temperature (ATMP): 86.4 °F
5-day plot - Wind Speed at 10 Meters Wind Speed at 10 meters (WSPD10M): 9.7 kts
5-day plot - Wind Speed at 20 Meters Wind Speed at 20 meters (WSPD20M): 11.7 kts
5-day plot -  Wind Speed, Wind Gust and Atmospheric Pressure Combined plot of Wind Speed, Gust, and Air Pressure
NOS Water Level Observation Network Water Level
Previous observations
TIME
(EDT)
5-day plot - Wind Direction
WDIR
 
5-day plot - Wind Speed
WSPD
kts
5-day plot - Wind Gust
GST
kts
5-day plot - Wave Height
WVHT
ft
5-day plot - Dominant Wave Period
DPD
sec
5-day plot - Average Wave Period
APD
sec
5-day plot - Mean Wave Direction
MWD
 
5-day plot - Atmospheric Pressure
PRES
in
5-day plot - Pressure Tendency
PTDY
in
5-day plot - Air Temperature
ATMP
°F
5-day plot - Water Temperature
WTMP
°F
5-day plot - Dew Point
DEWP
°F
5-day plot - Salinity
SAL
psu
5-day plot - Visibility
VIS
nmi
5-day plot - Tide (above MLLW)
TIDE
ft
2024-06-21 06:12 pm NW 9.9 12.0----30.02- 86.4-----
2024-06-21 06:06 pm NW 8.9 12.0----30.02- 86.5-----
2024-06-21 06:00 pm NW 8.9 9.9----30.01-0.04 86.7-----
2024-06-21 05:54 pm NW 8.0 8.9----30.01- 86.7-----
2024-06-21 05:48 pmNNW 8.0 8.9----30.01- 86.7-----
2024-06-21 05:42 pm NW 7.0 8.9----30.01- 86.9-----
2024-06-21 05:36 pm NW 6.0 7.0----30.01- 86.9-----
2024-06-21 05:30 pmWNW 6.0 7.0----30.01- 87.1-----
2024-06-21 05:24 pmWSW 2.9 5.1----30.01- 87.4-----
2024-06-21 05:18 pm W 4.1 4.1----30.01- 87.6-----
2024-06-21 05:12 pmWSW 2.9 4.1----30.01- 87.3-----
2024-06-21 05:06 pm NW 1.9 1.9----30.01- 88.3-----
2024-06-21 05:00 pmNNW 1.9 2.9----30.01-0.06 88.0-----
2024-06-21 04:54 pm NW 2.9 4.1----30.01- 87.6-----
2024-06-21 04:36 pmWSW 2.9 4.1----30.02- 86.7-----
2024-06-21 04:30 pmWSW 2.9 4.1----30.03- 86.4-----
2024-06-21 04:24 pm W 2.9 4.1----30.03- 86.5-----
2024-06-21 04:18 pm W 2.9 4.1----30.03- 86.9-----
2024-06-21 04:12 pmWNW 2.9 2.9----30.03- 86.7-----
2024-06-21 04:06 pm NW 2.9 4.1----30.03- 86.7-----
2024-06-21 04:00 pm NW 4.1 5.1----30.03-0.05 86.4-----
2024-06-21 03:54 pm NW 4.1 4.1----30.04- 86.2-----
2024-06-21 03:48 pm W 4.1 4.1----30.04- 86.0-----
2024-06-21 03:42 pm W 2.9 4.1----30.04- 86.2-----
2024-06-21 03:36 pm W 2.9 5.1----30.04- 86.0-----
2024-06-21 03:30 pm W 4.1 4.1----30.04- 85.8-----
2024-06-21 03:24 pm W 4.1 5.1----30.04- 85.8-----
2024-06-21 03:18 pm W 4.1 5.1----30.05- 85.6-----
2024-06-21 03:12 pm W 4.1 5.1----30.05- 85.5-----
2024-06-21 03:06 pm W 4.1 4.1----30.05- 85.5-----
2024-06-21 03:00 pm W 4.1 5.1----30.05-0.04 85.3-----
2024-06-21 02:54 pmWSW 5.1 5.1----30.05- 85.1-----
2024-06-21 02:48 pm W 5.1 5.1----30.06- 84.9-----
2024-06-21 02:42 pmWSW 4.1 5.1----30.06- 84.9-----
2024-06-21 02:36 pm SW 2.9 4.1----30.06- 84.7-----
2024-06-21 02:30 pm SW 4.1 5.1----30.06- 84.6-----
2024-06-21 02:24 pm SW 5.1 6.0----30.06- 84.4-----
2024-06-21 02:18 pmWSW 5.1 5.1----30.07- 84.4-----
2024-06-21 02:12 pm SW 5.1 6.0----30.07- 84.4-----
2024-06-21 02:06 pm SW 5.1 7.0----30.07- 84.0-----
2024-06-21 02:00 pmWSW 5.1 7.0----30.07-0.02 84.0-----
2024-06-21 01:54 pmSSW 6.0 7.0----30.07- 83.8-----
2024-06-21 01:48 pmSSW 7.0 8.0----30.08- 83.7-----
2024-06-21 01:42 pmSSW 8.0 8.9----30.08- 83.7-----
2024-06-21 01:36 pmSSW 8.9 9.9----30.08- 83.5-----
2024-06-21 01:30 pmSSW 8.0 8.9----30.08- 83.8-----
2024-06-21 01:24 pm S 6.0 7.0----30.08- 84.6-----
2024-06-21 01:18 pmSSE 6.0 9.9----30.08- 84.2-----
2024-06-21 01:12 pm W 5.1 7.0----30.08- 83.7-----
2024-06-21 01:06 pmWSW 2.9 2.9----30.08- 84.9-----
2024-06-21 01:00 pm SE 2.9 4.1----30.08+0.00 85.1-----
2024-06-21 12:54 pmSSE 2.9 4.1----30.08- 84.9-----
2024-06-21 12:48 pmESE 2.9 5.1----30.08- 84.7-----
2024-06-21 12:42 pmENE 4.1 7.0----30.08- 85.1-----
2024-06-21 12:36 pm E 6.0 8.0----30.08- 85.6-----
2024-06-21 12:30 pm E 5.1 8.0----30.08- 85.1-----
2024-06-21 12:24 pm NE 5.1 7.0----30.08- 84.7-----
2024-06-21 12:18 pmNNE 6.0 9.9----30.08- 84.0-----
2024-06-21 12:12 pmENE 5.1 8.0----30.08- 84.9-----
2024-06-21 12:06 pm N 5.1 7.0----30.09- 84.0-----
2024-06-21 12:00 pm NE 4.1 8.9----30.09+0.00 84.6-----
2024-06-21 11:54 amNNE 5.1 7.0----30.09- 84.2-----
2024-06-21 11:48 amNNE 5.1 8.9----30.09- 83.8-----
2024-06-21 11:42 amNNE 6.0 8.0----30.09- 84.4-----
2024-06-21 11:36 am NE 7.0 8.9----30.09- 83.5-----
2024-06-21 11:30 am NE 6.0 9.9----30.09- 83.3-----
2024-06-21 11:24 am NE 6.0 12.0----30.09- 83.5-----
2024-06-21 11:18 am E 6.0 9.9----30.09- 83.1-----
2024-06-21 11:12 am NE 6.0 8.9----30.10- 83.1-----
2024-06-21 11:06 am NE 4.1 8.9----30.10- 83.1-----
2024-06-21 11:00 amENE 2.9 7.0----30.10+0.02 83.3-----
2024-06-21 10:54 amNNE 5.1 8.0----30.09- 83.1-----
2024-06-21 10:48 amNNE 2.9 8.9----30.09- 82.6-----
2024-06-21 10:42 am NE 5.1 8.0----30.09- 82.6-----
2024-06-21 10:36 amNNE 5.1 8.0----30.09- 82.0-----
2024-06-21 10:30 am E 4.1 6.0----30.09- 81.9-----
2024-06-21 10:24 amENE 4.1 6.0----30.09- 82.0-----
2024-06-21 10:18 amNNE 4.1 6.0----30.09- 81.7-----
2024-06-21 10:12 amENE 5.1 8.0----30.09- 82.4-----
2024-06-21 10:06 amNNE 4.1 6.0----30.09- 81.5-----
2024-06-21 10:00 am N 5.1 7.0----30.09+0.02 80.6-----
2024-06-21 09:54 am N 4.1 7.0----30.09- 79.7-----
2024-06-21 09:48 amNNW 6.0 8.0----30.09- 79.2-----
2024-06-21 09:42 amNNW 6.0 8.0----30.08- 79.0-----
2024-06-21 09:36 am N 8.0 8.9----30.08- 79.2-----
2024-06-21 09:30 am N 8.0 8.9----30.08- 78.8-----
2024-06-21 09:24 am N 8.0 8.9----30.08- 79.0-----
2024-06-21 09:18 amNNW 7.0 8.0----30.09- 78.8-----
2024-06-21 09:12 am N 7.0 9.9----30.09- 78.8-----
2024-06-21 09:06 am N 6.0 8.0----30.09- 79.0-----
2024-06-21 09:00 amNNW 6.0 8.0----30.09+0.00 79.0-----
2024-06-21 08:54 am N 6.0 8.0----30.09- 79.3-----
2024-06-21 08:48 am N 5.1 7.0----30.09- 79.7-----
2024-06-21 08:42 am N 7.0 8.9----30.09- 79.2-----
2024-06-21 08:36 amNNE 6.0 8.9----30.09- 79.0-----
2024-06-21 08:30 amNNE 5.1 8.0----30.09- 79.0-----
2024-06-21 08:24 amNNE 6.0 9.9----30.09- 78.6-----
2024-06-21 08:18 amNNE 5.1 12.0----30.08- 78.6-----
2024-06-21 08:12 amNNE 7.0 11.1----30.07- 78.3-----
2024-06-21 08:06 amNNE 6.0 11.1----30.07- 78.3-----
2024-06-21 08:00 amNNE 9.9 12.0----30.08+0.00 77.7-----
2024-06-21 07:54 amNNE 8.0 9.9----30.07- 77.9-----
2024-06-21 07:48 amNNE 7.0 9.9----30.07- 77.5-----
2024-06-21 07:42 amNNE 8.0 11.1----30.07- 77.5-----
2024-06-21 07:36 amNNE 8.0 11.1----30.07- 77.5-----
2024-06-21 07:30 amNNE 7.0 8.9----30.07- 77.5-----
2024-06-21 07:24 amNNE 5.1 8.0----30.07- 77.7-----
2024-06-21 07:18 am N 6.0 8.0----30.07- 77.7-----
2024-06-21 07:12 amNNE 5.1 6.0----30.07- 77.5-----
2024-06-21 07:06 amNNE 2.9 6.0----30.07- 77.7-----
2024-06-21 07:00 amNNE 2.9 6.0----30.07-0.02 77.5-----
2024-06-21 06:54 amNNE 6.0 7.0----30.07- 77.4-----
2024-06-21 06:48 amNNE 4.1 7.0----30.07- 77.2-----
2024-06-21 06:42 amNNE 5.1 7.0----30.07- 77.2-----
2024-06-21 06:36 amNNE 5.1 5.1----30.07- 77.2-----
2024-06-21 06:30 amNNE 2.9 5.1----30.08- 77.2-----
2024-06-21 06:24 amNNE 2.9 8.0----30.08- 77.2-----
2024-06-21 06:18 amNNE 6.0 8.0----30.08- 77.2-----
2024-06-21 06:12 amNNE 6.0 8.0----30.08- 77.2-----
2024-06-21 06:06 amNNE 5.1 6.0----30.08- 77.2-----
2024-06-21 06:00 amNNE 5.1 7.0----30.08-0.02 77.4-----
2024-06-21 05:54 amNNE 5.1 7.0----30.08- 77.4-----
2024-06-21 05:48 amNNE 5.1 8.0----30.08- 77.4-----
2024-06-21 05:42 amNNE 4.1 5.1----30.08- 77.4-----
2024-06-21 05:36 am NE 2.9 4.1----30.08- 77.4-----
2024-06-21 05:30 amNNE 2.9 5.1----30.08- 77.4-----
2024-06-21 05:24 amNNE 4.1 6.0----30.08- 77.5-----
2024-06-21 05:18 amNNE 5.1 6.0----30.08- 77.4-----
2024-06-21 05:12 amNNE 5.1 6.0----30.07- 77.4-----
2024-06-21 05:06 am NE 4.1 8.0----30.07- 77.4-----
2024-06-21 05:00 amNNE 5.1 8.0----30.07-0.04 77.4-----
2024-06-21 04:54 amNNE 6.0 8.9----30.07- 77.5-----
2024-06-21 04:48 amNNE 7.0 8.9----30.07- 77.4-----
2024-06-21 04:42 amNNE 8.0 12.0----30.07- 77.5-----
2024-06-21 04:36 amNNE 6.0 8.0----30.08- 77.7-----
2024-06-21 04:30 am NE 4.1 7.0----30.08- 78.1-----
2024-06-21 04:24 am NE 4.1 6.0----30.08- 78.1-----
2024-06-21 04:18 am NE 2.9 7.0----30.08- 77.9-----
2024-06-21 04:12 amENE 2.9 6.0----30.09- 77.7-----
2024-06-21 04:06 amENE 4.1 5.1----30.09- 77.7-----
2024-06-21 04:00 amENE 2.9 6.0----30.09-0.02 77.7-----
2024-06-21 03:54 amENE 4.1 6.0----30.09- 77.9-----
2024-06-21 03:48 amENE 4.1 6.0----30.09- 77.9-----
2024-06-21 03:42 am NE 4.1 8.0----30.09- 78.1-----
2024-06-21 03:36 am NE 4.1 7.0----30.09- 78.4-----
2024-06-21 03:30 am NE 2.9 7.0----30.09- 78.4-----
2024-06-21 03:24 amENE 2.9 4.1----30.09- 78.3-----
2024-06-21 03:18 amENE 1.9 5.1----30.09- 78.3-----
2024-06-21 03:12 am NE 1.9 4.1----30.09- 78.3-----
2024-06-21 03:06 amENE 1.9 6.0----30.09- 78.3-----
2024-06-21 03:00 amENE 2.9 5.1----30.10-0.02 78.4-----
2024-06-21 02:54 am E 1.9 6.0----30.10- 78.4-----
2024-06-21 02:48 amENE 4.1 7.0----30.10- 78.6-----
2024-06-21 02:42 amENE 4.1 6.0----30.10- 78.6-----
2024-06-21 02:36 amENE 4.1 7.0----30.10- 78.6-----
2024-06-21 02:30 am NE 4.1 8.0----30.10- 78.8-----
2024-06-21 02:24 am NE 5.1 7.0----30.10- 79.0-----
2024-06-21 02:18 am NE 4.1 7.0----30.10- 79.0-----
2024-06-21 02:12 am NE 4.1 7.0----30.10- 78.8-----
2024-06-21 02:06 am NE 5.1 7.0----30.10- 78.8-----
2024-06-21 02:00 amENE 2.9 5.1----30.11-0.01 78.4-----
2024-06-21 01:54 amENE 4.1 5.1----30.11- 78.6-----
2024-06-21 01:48 amENE 2.9 6.0----30.11- 78.8-----
2024-06-21 01:42 am NE 5.1 7.0----30.11- 78.8-----
2024-06-21 01:36 amENE 4.1 5.1----30.11- 78.6-----
2024-06-21 01:30 am E 2.9 5.1----30.11- 79.0-----
2024-06-21 01:24 amENE 4.1 5.1----30.11- 79.0-----
2024-06-21 01:18 am E 2.9 5.1----30.11- 79.0-----
2024-06-21 01:12 amENE 2.9 6.0----30.11- 79.2-----
2024-06-21 01:06 amENE 4.1 8.0----30.11- 79.2-----
2024-06-21 01:00 am NE 4.1 7.0----30.11+0.00 79.3-----
2024-06-21 12:54 amENE 5.1 8.0----30.11- 79.3-----
2024-06-21 12:48 amENE 5.1 8.0----30.11- 79.5-----
2024-06-21 12:42 amENE 4.1 8.0----30.11- 79.5-----
2024-06-21 12:36 amENE 4.1 7.0----30.11- 79.7-----
2024-06-21 12:30 amENE 5.1 8.9----30.11- 79.9-----
2024-06-21 12:24 amENE 4.1 11.1----30.11- 79.9-----
2024-06-21 12:18 amENE 6.0 9.9----30.11- 80.1-----
2024-06-21 12:12 amENE 5.1 9.9----30.11- 80.2-----
2024-06-21 12:06 amENE 6.0 9.9----30.12- 80.4-----
2024-06-21 12:00 am NE 5.1 11.1----30.11+0.04 80.4-----
2024-06-20 11:54 pm NE 7.0 9.9----30.11- 80.6-----
2024-06-20 11:48 pm NE 5.1 8.9----30.12- 80.8-----
2024-06-20 11:42 pm NE 6.0 8.9----30.12- 80.8-----
2024-06-20 11:36 pmENE 5.1 8.9----30.12- 81.0-----
2024-06-20 11:30 pmENE 6.0 9.9----30.12- 81.0-----
2024-06-20 11:24 pmENE 6.0 9.9----30.12- 81.1-----
2024-06-20 11:18 pmENE 5.1 9.9----30.12- 81.1-----
2024-06-20 11:12 pm NE 6.0 8.0----30.12- 81.5-----
2024-06-20 11:06 pmENE 7.0 12.0----30.12- 81.5-----
2024-06-20 11:00 pmENE 6.0 9.9----30.12+0.05 81.7-----
2024-06-20 10:54 pmENE 6.0 9.9----30.12- 81.9-----
2024-06-20 10:48 pmENE 7.0 12.0----30.12- 82.0-----
2024-06-20 10:42 pmENE 5.1 9.9----30.12- 82.0-----
2024-06-20 10:36 pmENE 5.1 13.0----30.12- 82.4-----
2024-06-20 10:30 pmENE 7.0 12.0----30.12- 82.4-----
2024-06-20 10:24 pmENE 9.9 13.0----30.12- 82.8-----
2024-06-20 10:18 pmENE 8.9 13.0----30.12- 82.8-----
2024-06-20 10:12 pmENE 8.0 12.0----30.12- 82.9-----
2024-06-20 10:06 pmENE 6.0 11.1----30.11- 82.9-----
2024-06-20 10:00 pmENE 5.1 11.1----30.11+0.06 83.1-----
2024-06-20 09:54 pmENE 6.0 11.1----30.11- 83.3-----
2024-06-20 09:48 pmENE 8.0 13.0----30.10- 83.5-----
2024-06-20 09:42 pm NE 6.0 11.1----30.10- 83.7-----
2024-06-20 09:36 pmENE 6.0 9.9----30.09- 83.8-----
2024-06-20 09:30 pmENE 6.0 9.9----30.09- 84.0-----
2024-06-20 09:24 pmENE 5.1 8.9----30.08- 84.2-----
2024-06-20 09:18 pmENE 8.0 12.0----30.08- 84.6-----
2024-06-20 09:12 pmENE 5.1 13.0----30.08- 84.7-----
2024-06-20 09:06 pmENE 6.0 11.1----30.08- 85.1-----
2024-06-20 09:00 pmENE 7.0 11.1----30.08+0.03 85.3-----
2024-06-20 08:54 pmENE 5.1 8.9----30.07- 85.3-----
2024-06-20 08:48 pmENE 7.0 13.0----30.07- 85.5-----
2024-06-20 08:42 pmENE 4.1 11.1----30.07- 85.5-----
2024-06-20 08:36 pm E 5.1 8.9----30.07- 85.6-----
2024-06-20 08:30 pm E 6.0 11.1----30.07- 85.8-----
2024-06-20 08:24 pm E 7.0 12.0----30.07- 86.0-----
2024-06-20 08:18 pmENE 6.0 12.0----30.07- 86.2-----
2024-06-20 08:12 pmENE 7.0 13.0----30.07- 86.4-----
2024-06-20 08:06 pm E 8.0 13.0----30.06- 86.4-----
2024-06-20 08:00 pm E 7.0 9.9----30.07+0.02 86.7-----
2024-06-20 07:54 pmENE 5.1 9.9----30.06- 87.1-----
2024-06-20 07:48 pmENE 7.0 11.1----30.06- 87.3-----
2024-06-20 07:42 pmENE 7.0 15.0----30.06- 87.4-----
2024-06-20 07:36 pm E 8.0 15.0----30.06- 87.4-----
2024-06-20 07:30 pm E 7.0 12.0----30.06- 87.4-----
2024-06-20 07:24 pmENE 8.9 14.0----30.06- 87.4-----
2024-06-20 07:18 pm E 7.0 13.0----30.06- 87.8-----
2024-06-20 07:12 pm E 7.0 11.1----30.06- 88.3-----
2024-06-20 07:06 pm E 8.0 13.0----30.06- 88.2-----
2024-06-20 07:00 pm E 8.0 13.0----30.05-0.01 88.3-----
2024-06-20 06:54 pm E 11.1 17.1----30.05- 88.2-----
2024-06-20 06:48 pmENE 8.9 14.0----30.05- 88.3-----
2024-06-20 06:42 pmENE 8.0 15.9----30.05- 88.5-----
2024-06-20 06:36 pm E 9.9 17.1----30.05- 88.5-----
2024-06-20 06:30 pmENE 8.0 13.0----30.05-------
2024-06-20 06:24 pmENE 8.0 14.0----30.05-------
2024-06-20 06:18 pmENE 8.0 11.1----30.04-------
2024-06-20 06:12 pmENE 8.9 15.0----30.04-------
2024-06-20 06:06 pmENE 8.9 14.0----30.04-------
2024-06-20 06:00 pm E 11.1 15.9----30.04-0.04 88.9-----
2024-06-20 05:54 pmENE 9.9 14.0----30.05- 88.9-----